TimeEDT,TemperatureF,Dew PointF,Humidity,Sea Level PressureIn,VisibilityMPH,Wind Direction,Wind SpeedMPH,Gust SpeedMPH,PrecipitationIn,Events,Conditions,WindDirDegrees,DateUTC
12:15 AM,63.7,62.4,96,30.22,10.0,Calm,Calm,-,N/A,,Mostly Cloudy,0,2013-05-28 04:15:00
12:35 AM,64.2,62.6,94,30.22,10.0,Calm,Calm,-,N/A,,Scattered Clouds,0,2013-05-28 04:35:00
12:55 AM,66.2,59.0,78,30.22,10.0,South,4.6,-,N/A,,Clear,180,2013-05-28 04:55:00
1:15 AM,65.3,58.5,78,30.22,10.0,South,3.5,-,N/A,,Clear,170,2013-05-28 05:15:00
1:35 AM,65.1,57.9,77,30.22,10.0,South,3.5,-,N/A,,Clear,170,2013-05-28 05:35:00
1:55 AM,65.3,57.4,76,30.21,10.0,South,5.8,-,N/A,,Clear,180,2013-05-28 05:55:00
2:15 AM,64.9,57.2,76,30.22,10.0,South,4.6,-,N/A,,Clear,170,2013-05-28 06:15:00
2:35 AM,64.6,56.7,75,30.22,10.0,South,4.6,-,N/A,,Scattered Clouds,170,2013-05-28 06:35:00
2:55 AM,64.6,56.3,74,30.21,10.0,SSE,4.6,-,N/A,,Mostly Cloudy,160,2013-05-28 06:55:00
3:15 AM,63.9,55.8,75,30.21,10.0,SSE,4.6,-,N/A,,Scattered Clouds,160,2013-05-28 07:15:00
3:35 AM,63.0,55.6,77,30.20,10.0,SE,4.6,-,N/A,,Clear,140,2013-05-28 07:35:00
3:55 AM,62.6,55.8,78,30.20,10.0,SSE,4.6,-,N/A,,Clear,150,2013-05-28 07:55:00
4:15 AM,62.8,55.4,77,30.21,10.0,SE,4.6,-,N/A,,Scattered Clouds,140,2013-05-28 08:15:00
4:35 AM,62.8,55.8,78,30.21,10.0,SE,3.5,-,N/A,,Mostly Cloudy,140,2013-05-28 08:35:00
4:55 AM,62.6,55.9,79,30.21,10.0,SSE,3.5,-,N/A,,Scattered Clouds,150,2013-05-28 08:55:00
5:15 AM,62.6,56.5,80,30.21,10.0,SSE,3.5,-,N/A,,Scattered Clouds,150,2013-05-28 09:15:00
5:35 AM,62.8,56.7,80,30.21,10.0,Calm,Calm,-,N/A,,Scattered Clouds,0,2013-05-28 09:35:00
5:55 AM,62.4,56.7,81,30.22,10.0,SSE,3.5,-,N/A,,Scattered Clouds,150,2013-05-28 09:55:00
6:15 AM,63.0,57.2,81,30.22,10.0,SSE,3.5,-,N/A,,Scattered Clouds,150,2013-05-28 10:15:00
6:35 AM,63.9,58.1,81,30.23,10.0,South,3.5,-,N/A,,Scattered Clouds,170,2013-05-28 10:35:00
6:55 AM,65.5,58.6,79,30.23,10.0,South,4.6,-,N/A,,Mostly Cloudy,180,2013-05-28 10:55:00
7:15 AM,66.2,58.6,77,30.23,10.0,South,4.6,-,N/A,,Scattered Clouds,180,2013-05-28 11:15:00
7:35 AM,67.1,59.2,76,30.24,10.0,SSW,9.2,-,N/A,,Scattered Clouds,200,2013-05-28 11:35:00
7:55 AM,68.2,59.9,75,30.24,10.0,SSW,10.4,-,N/A,,Scattered Clouds,200,2013-05-28 11:55:00
8:15 AM,67.5,59.9,77,30.24,10.0,SSW,9.2,16.1,N/A,,Mostly Cloudy,200,2013-05-28 12:15:00
8:35 AM,68.7,61.0,76,30.24,10.0,SSW,9.2,-,N/A,,Mostly Cloudy,200,2013-05-28 12:35:00
8:55 AM,69.8,61.7,75,30.24,10.0,SSW,8.1,-,N/A,,Mostly Cloudy,200,2013-05-28 12:55:00
9:15 AM,70.7,62.4,75,30.24,10.0,SSW,9.2,-,N/A,,Scattered Clouds,200,2013-05-28 13:15:00
9:35 AM,71.4,63.0,75,30.24,10.0,SSW,8.1,-,N/A,,Scattered Clouds,210,2013-05-28 13:35:00
9:55 AM,71.8,63.9,76,30.23,10.0,South,5.8,-,N/A,,Scattered Clouds,190,2013-05-28 13:55:00
10:15 AM,73.4,64.0,72,30.23,10.0,SSW,9.2,-,N/A,,Clear,210,2013-05-28 14:15:00
10:35 AM,74.3,64.2,71,30.22,10.0,SSW,11.5,-,N/A,,Scattered Clouds,200,2013-05-28 14:35:00
10:55 AM,75.4,64.4,69,30.23,10.0,SSW,11.5,18.4,N/A,,Scattered Clouds,210,2013-05-28 14:55:00
11:15 AM,76.5,65.1,68,30.23,10.0,SSW,12.7,17.3,N/A,,Scattered Clouds,210,2013-05-28 15:15:00
11:35 AM,77.0,65.7,68,30.22,10.0,SSW,9.2,-,N/A,,Mostly Cloudy,200,2013-05-28 15:35:00
11:55 AM,78.6,66.0,65,30.21,10.0,South,11.5,18.4,N/A,,Scattered Clouds,190,2013-05-28 15:55:00
12:15 PM,79.3,66.4,64,30.20,10.0,SSW,10.4,-,N/A,,Clear,200,2013-05-28 16:15:00
12:35 PM,79.7,66.0,63,30.20,10.0,South,12.7,19.6,N/A,,Clear,190,2013-05-28 16:35:00
12:55 PM,79.3,66.4,64,30.19,10.0,SSW,10.4,17.3,N/A,,Mostly Cloudy,210,2013-05-28 16:55:00
1:15 PM,79.9,66.7,64,30.19,10.0,SSW,10.4,-,N/A,,Mostly Cloudy,210,2013-05-28 17:15:00
1:35 PM,80.4,66.9,63,30.18,10.0,SSW,8.1,-,N/A,,Mostly Cloudy,200,2013-05-28 17:35:00
1:55 PM,80.8,66.9,63,30.17,10.0,SSW,5.8,17.3,N/A,,Mostly Cloudy,210,2013-05-28 17:55:00
2:15 PM,82.6,66.7,59,30.17,10.0,SSW,10.4,17.3,N/A,,Scattered Clouds,200,2013-05-28 18:15:00
2:35 PM,82.4,66.9,59,30.17,10.0,South,8.1,-,N/A,,Scattered Clouds,190,2013-05-28 18:35:00
2:55 PM,82.4,66.2,58,30.16,10.0,SSW,11.5,16.1,N/A,,Overcast,200,2013-05-28 18:55:00
3:15 PM,83.7,67.3,58,30.16,10.0,SW,9.2,-,N/A,,Overcast,220,2013-05-28 19:15:00
3:35 PM,82.0,66.9,60,30.16,10.0,South,9.2,17.3,N/A,,Overcast,190,2013-05-28 19:35:00
3:55 PM,84.4,67.5,57,30.16,10.0,SSW,9.2,-,N/A,,Overcast,200,2013-05-28 19:55:00
4:15 PM,82.9,67.1,59,30.15,10.0,South,10.4,-,N/A,,Overcast,180,2013-05-28 20:15:00
4:35 PM,84.6,67.1,56,30.14,10.0,SSW,13.8,18.4,N/A,,Scattered Clouds,200,2013-05-28 20:35:00
4:55 PM,83.7,67.5,58,30.14,10.0,SSW,9.2,-,N/A,,Clear,200,2013-05-28 20:55:00
5:15 PM,83.7,67.6,58,30.14,10.0,SSW,8.1,-,N/A,,Clear,210,2013-05-28 21:15:00
5:35 PM,83.8,68.4,59,30.13,10.0,SSW,9.2,-,N/A,,Clear,200,2013-05-28 21:35:00
5:55 PM,83.5,67.5,58,30.13,10.0,South,10.4,-,N/A,,Clear,190,2013-05-28 21:55:00
6:15 PM,83.3,66.7,57,30.13,10.0,South,10.4,-,N/A,,Clear,180,2013-05-28 22:15:00
6:35 PM,82.6,66.7,59,30.12,10.0,South,10.4,-,N/A,,Clear,180,2013-05-28 22:35:00
6:55 PM,82.0,67.3,61,30.13,10.0,South,5.8,-,N/A,,Clear,190,2013-05-28 22:55:00
7:15 PM,81.7,66.9,61,30.13,10.0,South,6.9,-,N/A,,Clear,180,2013-05-28 23:15:00
7:35 PM,80.6,66.9,63,30.13,10.0,South,5.8,-,N/A,,Clear,180,2013-05-28 23:35:00
7:55 PM,79.3,66.6,65,30.13,10.0,South,8.1,-,N/A,,Clear,170,2013-05-28 23:55:00
8:15 PM,78.4,66.6,67,30.13,10.0,South,5.8,-,N/A,,Clear,170,2013-05-29 00:15:00
8:35 PM,77.9,66.2,67,30.13,10.0,South,6.9,-,N/A,,Clear,170,2013-05-29 00:35:00
8:55 PM,77.2,66.2,69,30.13,10.0,South,5.8,-,N/A,,Clear,170,2013-05-29 00:55:00
9:15 PM,76.8,65.8,69,30.14,10.0,South,6.9,-,N/A,,Clear,180,2013-05-29 01:15:00
9:35 PM,76.3,65.7,70,30.14,10.0,South,8.1,-,N/A,,Clear,170,2013-05-29 01:35:00
9:55 PM,76.1,65.5,70,30.15,10.0,South,6.9,-,N/A,,Clear,170,2013-05-29 01:55:00
10:15 PM,75.7,65.5,70,30.15,10.0,South,6.9,-,N/A,,Clear,170,2013-05-29 02:15:00
10:35 PM,75.6,65.5,71,30.16,10.0,South,8.1,-,N/A,,Clear,170,2013-05-29 02:35:00
10:55 PM,75.2,65.3,71,30.16,10.0,South,6.9,-,N/A,,Clear,170,2013-05-29 02:55:00
11:15 PM,74.5,65.3,73,30.16,10.0,South,8.1,-,N/A,,Clear,170,2013-05-29 03:15:00
11:35 PM,73.9,65.3,74,30.16,10.0,South,8.1,-,N/A,,Clear,170,2013-05-29 03:35:00
11:55 PM,73.9,65.3,74,30.16,10.0,South,9.2,-,N/A,,Clear,170,2013-05-29 03:55:00